Regional Weather Roundup
Issued by NWS

Home | Current Version | Previous Version | Graphics & Text | Print | Product List | Glossary On
Versions: 1 2 3 4 5 6 7 8 9 10 11 12 13 14 15 16 17 18 19 20 21 22 23 24 25 26 27 28 29 30 31 32 33 34 35 36 37 38 39 40 41 42 43 44 45 46 47 48 49 50
183
ASUS43 KDMX 300008
RWRIA

WEATHER ROUNDUP FOR IOWA
NATIONAL WEATHER SERVICE DES MOINES IA
700 PM CDT FRI JUL 29 2016

NOTE: "FAIR" INDICATES FEW OR NO CLOUDS BELOW 12,000 FEET WITH NO
SIGNIFICANT WEATHER AND/OR OBSTRUCTIONS TO VISIBILITY.

* - THESE STATIONS ARE NOT NWS STATIONS...THUS NOT UNDER NWS
QUALITY CONTROL.  THEY ALSO DO NOT REPORT WEATHER SUCH
AS PRECIPITATION OR FOG.

IAZ001>003-012>014-020>022-031>034-043>046-300100-
   NORTHWEST IOWA

CITY           SKY/WX    TMP DP  RH WIND       PRES   REMARKS
CARROLL *      CLOUDY    72  63  73 NE8       30.02S
CHEROKEE *     MOSUNNY   74  62  64 NE7       30.02R
DENISON *      MOSUNNY   73  63  68 NE9       30.00S
LE MARS *      MOSUNNY   77  61  57 NE9       30.02S
SHELDON *      SUNNY     75  59  57 NE7       30.02S
SIOUX CITY     SUNNY     79  60  52 E7        30.01S HX  80
6HR MIN TEMP:  77; 6HR MAX TEMP:  84;

SPENCER        SUNNY     76  54  46 NE12      30.03S
6HR MIN TEMP:  72; 6HR MAX TEMP:  79;

STORM LAKE *   PTSUNNY   73  63  68 E9        30.03S
$$

IAZ055>058-069>071-079>083-090>094-300100-
   SOUTHWEST IOWA

CITY           SKY/WX    TMP DP  RH WIND       PRES   REMARKS
ATLANTIC *     CLOUDY    72  64  78 N7        30.01S
CLARINDA *       N/A     77  64  65 MISG      30.01S
COUNCIL BLFS * SUNNY     75  64  69 NE10      30.00F
CRESTON *      CLOUDY    72  63  73 NE9G16    30.02F
HARLAN  *      SUNNY     73  63  68 N8        30.04S
LAMONI         SUNNY     74  65  73 N13       29.99S
6HR MIN TEMP:  73; 6HR MAX TEMP:  80;

RED OAK *      SUNNY     77  64  65 NE10      30.00S
SHENANDOAH *   MOSUNNY   77  66  69 N8        30.00S
$$

IAZ047>049-059>061-072>074-084-300100-
   CENTRAL IOWA

CITY           SKY/WX    TMP DP  RH WIND       PRES   REMARKS
AMES           CLOUDY    71  66  84 N3        30.00R
6HR MIN TEMP:  68; 6HR MAX TEMP:  73;

ANKENY *         N/A    N/A N/A N/A MISG        N/A
BOONE *        CLOUDY    72  64  78 NE7       29.99F
CHARITON *       N/A    N/A N/A N/A MISG        N/A
DES MOINES     LGT RAIN  71  64  78 N6        29.99S
6HR MIN TEMP:  70; 6HR MAX TEMP:  74; 6HR PCP: TRACE;

GRINNELL*      CLOUDY    70  65  82 N6        29.99S
KNOXVILLE *    CLOUDY    70  64  83 NW7       29.98S
MARSHALLTOWN   CLOUDY    71  65  81 NE9       29.98S
6HR MIN TEMP:  67; 6HR MAX TEMP:  73;

NEWTON *       CLOUDY    72  66  83 N6        29.98S
PELLA *        LGT RAIN  67  65  93 NW3       29.99F
PERRY *        CLOUDY    70  65  85 N3        30.01S
$$

IAZ004>006-015-016-023>025-035-036-300100-
   NORTH CENTRAL IOWA

CITY           SKY/WX    TMP DP  RH WIND       PRES   REMARKS
ALGONA *       CLOUDY    70  64  83 CALM      30.03S
ESTHERVILLE    MOSUNNY   73  59  61 N9        30.03S
6HR MIN TEMP:  70; 6HR MAX TEMP:  76;

FORT DODGE *   CLOUDY    70  63  78 N6        30.02F
MASON CITY     CLOUDY    71  62  73 NE3       30.03S
6HR MIN TEMP:  69; 6HR MAX TEMP:  75;

FOREST CITY *  CLOUDY    70  63  78 N3        30.02S
IOWA FALLS *   CLOUDY    72  64  76 NE9       30.01S
$$

IAZ007>011-017>019-026>030-037>042-050>054-066-300100-
   NORTHEAST IOWA

CITY           SKY/WX    TMP DP  RH WIND       PRES   REMARKS
CEDAR RAPIDS   CLOUDY    70  68  93 N9        29.96R
6HR MIN TEMP:  70; 6HR MAX TEMP:  75; 6HR PCP:  0.08;

CHARLES CITY * CLOUDY    72  66  83 NE5G12    30.01S
CLINTON *      CLOUDY    70  66  87 E15       29.95R
DECORAH *      LGT RAIN  68  68 100 CALM      30.00S
DUBUQUE        CLOUDY    70  66  87 N8        29.98S
6HR MIN TEMP:  67; 6HR MAX TEMP:  72; 6HR PCP:  0.22;

MONTICELLO *   CLOUDY    70  66  88 CALM      29.97R
OELWEIN *      CLOUDY    70  66  88 NE9       30.00S
WATERLOO       CLOUDY    70  64  81 NE8       29.98S
6HR MIN TEMP:  67; 6HR MAX TEMP:  72;

$$

IAZ064-065-067-068-078-300100-
   EAST CENTRAL IOWA

CITY           SKY/WX    TMP DP  RH WIND       PRES   REMARKS
DAVENPORT      MOSUNNY   75  68  78 N7        29.95R
6HR MIN TEMP:  75; 6HR MAX TEMP:  79;

IOWA CITY      CLOUDY    73  66  78 N13       29.96R
6HR MIN TEMP:  73; 6HR MAX TEMP:  79; 6HR PCP: TRACE;

MT. PLEASANT * SUNNY     78  67  67 W9        29.94S HX  80
MUSCATINE *    PTSUNNY   75  68  78 NE8       29.94R
QUAD CITIES    MOSUNNY   78  67  68 N5        29.92S HX  80
6HR MIN TEMP:  74; 6HR MAX TEMP:  84; 6HR PCP:  0.14;

$$

IAZ062-063-075>077-085>089-095>099-300100-
   SOUTHEAST IOWA

CITY           SKY/WX    TMP DP  RH WIND       PRES   REMARKS
BURLINGTON     SUNNY     75  67  76 NW5       29.93F
6HR MIN TEMP:  72; 6HR MAX TEMP:  79;

FAIRFIELD *    PTSUNNY   75  66  73 NW9       29.95S
KEOKUK *       MOSUNNY   77  64  65 NW6       29.93F
CENTERVILLE *    N/A     73  64  73 NW8       29.98F
OTTUMWA        MOSUNNY   72  65  78 NW13      29.97S
6HR MIN TEMP:  71; 6HR MAX TEMP:  76;

WASHINGTON *   CLOUDY    72  68  88 NW10G17   29.96S
$$

ABBREVIATIONS USED IN REMARKS
   TC - TEMPERATURES IN CELSIUS
  WCI - WIND CHILL INDEX
   HX - HEAT INDEX
  VSB - VISIBILITY
$$





USA.gov is the U.S. government's official web portal to all federal, state and local government web resources and services.